Time,TemperatureF,DewpointF,PressureIn,WindDirection,WindDirectionDegrees,WindSpeedMPH,WindSpeedGustMPH,Humidity,HourlyPrecipIn,Conditions,Clouds,dailyrainin,SoftwareType,DateUTC
2013-01-28 00:05:00,34.1,32.8,30.11,WSW,252,17.0,17.0,95,0.00,,,0.00,Wunderground v.1.15,2013-01-28 05:05:00,
2013-01-28 00:10:00,34.2,32.9,30.11,WSW,243,16.0,16.0,95,0.00,,,0.00,Wunderground v.1.15,2013-01-28 05:10:00,
2013-01-28 00:15:00,34.3,33.0,30.11,WSW,245,16.0,16.0,95,0.00,,,0.00,Wunderground v.1.15,2013-01-28 05:15:00,
2013-01-28 00:20:00,34.4,33.1,30.12,West,271,16.0,17.0,95,0.00,,,0.00,Wunderground v.1.15,2013-01-28 05:20:00,
2013-01-28 00:25:00,34.4,33.1,30.12,WSW,254,16.0,17.0,95,0.00,,,0.00,Wunderground v.1.15,2013-01-28 05:25:00,
2013-01-28 00:30:00,34.7,33.4,30.11,WSW,252,15.0,21.0,95,0.00,,,0.00,Wunderground v.1.15,2013-01-28 05:30:00,
2013-01-28 00:35:00,35.0,33.7,30.10,WSW,248,16.0,21.0,95,0.00,,,0.00,Wunderground v.1.15,2013-01-28 05:35:00,
2013-01-28 00:45:00,35.2,33.9,30.11,WSW,253,13.0,16.0,95,0.00,,,0.00,Wunderground v.1.15,2013-01-28 05:45:00,
2013-01-28 00:50:00,35.1,33.8,30.12,West,271,11.0,11.0,95,0.00,,,0.00,Wunderground v.1.15,2013-01-28 05:50:00,
2013-01-28 01:00:00,35.2,33.9,30.11,WSW,256,11.0,11.0,95,0.00,,,0.00,Wunderground v.1.15,2013-01-28 06:00:00,
2013-01-28 01:05:00,35.2,34.2,30.09,WSW,252,12.0,14.0,96,0.00,,,0.00,Wunderground v.1.15,2013-01-28 06:05:00,
2013-01-28 01:10:00,35.2,34.2,30.09,WSW,243,13.0,25.0,96,0.00,,,0.00,Wunderground v.1.15,2013-01-28 06:10:00,
2013-01-28 01:20:00,35.2,34.2,30.08,West,262,13.0,13.0,96,0.00,,,0.00,Wunderground v.1.15,2013-01-28 06:20:00,
2013-01-28 01:25:00,35.3,34.3,30.08,West,265,12.0,25.0,96,0.00,,,0.00,Wunderground v.1.15,2013-01-28 06:25:00,
2013-01-28 01:30:00,35.5,34.7,30.09,WSW,248,11.0,11.0,97,0.00,,,0.00,Wunderground v.1.15,2013-01-28 06:30:00,
2013-01-28 01:40:00,35.6,34.8,30.10,West,276,8.0,8.0,97,0.00,,,0.00,Wunderground v.1.15,2013-01-28 06:40:00,
2013-01-28 01:45:00,35.6,34.8,30.09,WNW,285,7.0,25.0,97,0.00,,,0.00,Wunderground v.1.15,2013-01-28 06:45:00,
2013-01-28 01:50:00,35.7,34.9,30.08,West,280,8.0,8.0,97,0.00,,,0.00,Wunderground v.1.15,2013-01-28 06:50:00,
2013-01-28 02:00:00,35.9,35.1,30.07,West,261,10.0,10.0,97,0.00,,,0.00,Wunderground v.1.15,2013-01-28 07:00:00,
2013-01-28 02:05:00,36.0,35.2,30.07,West,270,11.0,11.0,97,0.00,,,0.00,Wunderground v.1.15,2013-01-28 07:05:00,
2013-01-28 02:15:00,36.4,35.9,30.07,WNW,288,10.0,25.0,98,0.00,,,0.01,Wunderground v.1.15,2013-01-28 07:15:00,
2013-01-28 02:20:00,36.6,36.1,30.07,West,271,9.0,25.0,98,0.00,,,0.01,Wunderground v.1.15,2013-01-28 07:20:00,
2013-01-28 02:25:00,36.6,36.1,30.07,WSW,256,9.0,25.0,98,0.00,,,0.01,Wunderground v.1.15,2013-01-28 07:25:00,
2013-01-28 02:35:00,37.2,36.7,30.06,West,280,10.0,25.0,98,0.00,,,0.01,Wunderground v.1.15,2013-01-28 07:35:00,
2013-01-28 02:40:00,37.7,37.2,30.06,West,278,11.0,25.0,98,0.00,,,0.01,Wunderground v.1.15,2013-01-28 07:40:00,
2013-01-28 02:45:00,38.3,37.8,30.05,West,266,14.0,25.0,98,0.00,,,0.01,Wunderground v.1.15,2013-01-28 07:45:00,
2013-01-28 02:55:00,38.5,38.0,30.05,WNW,285,15.0,25.0,98,0.00,,,0.01,Wunderground v.1.15,2013-01-28 07:55:00,
2013-01-28 03:01:00,38.5,38.0,30.05,WNW,289,14.0,14.0,98,0.00,,,0.01,Wunderground v.1.15,2013-01-28 08:01:00,
2013-01-28 03:10:00,38.7,38.2,30.04,WNW,291,14.0,14.0,98,0.00,,,0.01,Wunderground v.1.15,2013-01-28 08:10:00,
2013-01-28 03:15:00,38.8,38.3,30.05,WSW,257,13.0,19.0,98,0.00,,,0.01,Wunderground v.1.15,2013-01-28 08:15:00,
2013-01-28 03:20:00,38.9,38.4,30.04,WNW,288,14.0,14.0,98,0.00,,,0.01,Wunderground v.1.15,2013-01-28 08:20:00,
2013-01-28 03:30:00,39.5,39.0,30.02,West,277,17.0,18.0,98,0.00,,,0.01,Wunderground v.1.15,2013-01-28 08:30:00,
2013-01-28 03:35:00,39.8,39.3,30.03,West,271,17.0,18.0,98,0.00,,,0.01,Wunderground v.1.15,2013-01-28 08:35:00,
2013-01-28 03:40:00,39.8,39.3,30.03,WNW,291,16.0,16.0,98,0.00,,,0.02,Wunderground v.1.15,2013-01-28 08:40:00,
2013-01-28 03:45:00,39.8,39.3,30.03,West,267,14.0,16.0,98,0.00,,,0.02,Wunderground v.1.15,2013-01-28 08:45:00,
2013-01-28 03:55:00,39.9,39.4,30.03,WNW,287,13.0,15.0,98,0.00,,,0.02,Wunderground v.1.15,2013-01-28 08:55:00,
2013-01-28 04:00:00,39.9,39.4,30.02,WSW,248,12.0,12.0,98,0.00,,,0.02,Wunderground v.1.15,2013-01-28 09:00:00,
2013-01-28 04:10:00,40.9,40.6,30.02,WNW,284,12.0,12.0,99,0.00,,,0.02,Wunderground v.1.15,2013-01-28 09:10:00,
2013-01-28 04:15:00,41.1,40.8,30.03,WNW,298,13.0,16.0,99,0.00,,,0.02,Wunderground v.1.15,2013-01-28 09:15:00,
2013-01-28 04:20:00,41.5,41.2,30.02,WNW,300,12.0,22.0,99,0.00,,,0.02,Wunderground v.1.15,2013-01-28 09:20:00,
2013-01-28 04:30:00,41.9,41.6,30.02,WNW,293,12.0,22.0,99,0.00,,,0.02,Wunderground v.1.15,2013-01-28 09:30:00,
2013-01-28 04:35:00,42.0,41.7,30.01,WNW,288,12.0,22.0,99,0.00,,,0.02,Wunderground v.1.15,2013-01-28 09:35:00,
2013-01-28 04:45:00,42.3,42.0,30.01,West,278,12.0,22.0,99,0.00,,,0.02,Wunderground v.1.15,2013-01-28 09:45:00,
2013-01-28 04:50:00,42.3,42.0,30.01,West,278,11.0,11.0,99,0.00,,,0.02,Wunderground v.1.15,2013-01-28 09:50:00,
2013-01-28 05:00:00,42.8,42.5,30.01,NW,304,11.0,11.0,99,0.00,,,0.02,Wunderground v.1.15,2013-01-28 10:00:00,
2013-01-28 05:05:00,43.1,42.8,30.01,WNW,283,12.0,12.0,99,0.00,,,0.02,Wunderground v.1.15,2013-01-28 10:05:00,
2013-01-28 05:10:00,43.3,43.0,30.01,WNW,300,12.0,12.0,99,0.00,,,0.02,Wunderground v.1.15,2013-01-28 10:10:00,
2013-01-28 05:20:00,43.5,43.2,30.01,WNW,293,12.0,22.0,99,0.00,,,0.02,Wunderground v.1.15,2013-01-28 10:20:00,
2013-01-28 05:25:00,43.7,43.4,30.00,WNW,293,12.0,22.0,99,0.00,,,0.02,Wunderground v.1.15,2013-01-28 10:25:00,
2013-01-28 05:30:00,43.7,43.2,30.00,WNW,291,11.0,22.0,98,0.00,,,0.02,Wunderground v.1.15,2013-01-28 10:30:00,
2013-01-28 05:35:00,43.8,43.3,30.00,NW,304,12.0,22.0,98,0.00,,,0.02,Wunderground v.1.15,2013-01-28 10:35:00,
2013-01-28 05:45:00,44.0,43.5,30.00,WNW,289,13.0,13.0,98,0.00,,,0.02,Wunderground v.1.15,2013-01-28 10:45:00,
2013-01-28 05:50:00,44.2,43.7,30.00,West,276,13.0,13.0,98,0.00,,,0.02,Wunderground v.1.15,2013-01-28 10:50:00,
2013-01-28 05:55:00,44.3,43.8,30.00,WNW,295,13.0,22.0,98,0.00,,,0.02,Wunderground v.1.15,2013-01-28 10:55:00,
2013-01-28 06:05:00,44.3,43.8,29.99,WNW,293,11.0,12.0,98,0.00,,,0.02,Wunderground v.1.15,2013-01-28 11:05:00,
2013-01-28 06:10:00,44.1,43.6,29.99,WNW,295,10.0,22.0,98,0.00,,,0.02,Wunderground v.1.15,2013-01-28 11:10:00,
2013-01-28 06:15:00,44.5,44.0,29.99,WNW,283,10.0,22.0,98,0.00,,,0.02,Wunderground v.1.15,2013-01-28 11:15:00,
2013-01-28 06:25:00,44.6,44.1,30.00,West,276,11.0,22.0,98,0.00,,,0.02,Wunderground v.1.15,2013-01-28 11:25:00,
2013-01-28 06:30:00,44.7,44.2,29.99,West,273,11.0,11.0,98,0.00,,,0.02,Wunderground v.1.15,2013-01-28 11:30:00,
2013-01-28 06:35:00,44.9,44.4,29.99,WNW,302,10.0,14.0,98,0.00,,,0.02,Wunderground v.1.15,2013-01-28 11:35:00,
2013-01-28 06:40:00,44.8,44.3,29.99,West,273,10.0,10.0,98,0.00,,,0.02,Wunderground v.1.15,2013-01-28 11:40:00,
2013-01-28 06:45:00,44.9,44.4,29.99,WNW,298,10.0,15.0,98,0.00,,,0.02,Wunderground v.1.15,2013-01-28 11:45:00,
2013-01-28 06:50:00,45.1,44.6,29.99,WNW,282,11.0,22.0,98,0.00,,,0.02,Wunderground v.1.15,2013-01-28 11:50:00,
2013-01-28 07:00:00,45.3,44.8,29.98,WNW,293,10.0,14.0,98,0.00,,,0.02,Wunderground v.1.15,2013-01-28 12:00:00,
2013-01-28 07:10:00,45.5,45.0,29.98,WNW,299,11.0,11.0,98,0.00,,,0.02,Wunderground v.1.15,2013-01-28 12:10:00,
2013-01-28 07:15:00,45.5,45.0,29.98,WNW,282,11.0,11.0,98,0.00,,,0.02,Wunderground v.1.15,2013-01-28 12:15:00,
2013-01-28 07:25:00,45.7,45.2,29.98,WNW,300,12.0,13.0,98,0.00,,,0.02,Wunderground v.1.15,2013-01-28 12:25:00,
2013-01-28 07:30:00,45.8,45.3,29.98,WNW,288,12.0,12.0,98,0.00,,,0.02,Wunderground v.1.15,2013-01-28 12:30:00,
2013-01-28 07:40:00,45.9,45.4,29.98,NW,310,12.0,15.0,98,0.00,,,0.02,Wunderground v.1.15,2013-01-28 12:40:00,
2013-01-28 07:45:00,45.9,45.4,29.98,WNW,295,13.0,16.0,98,0.00,,,0.02,Wunderground v.1.15,2013-01-28 12:45:00,
2013-01-28 07:50:00,45.9,45.4,29.98,NW,307,12.0,14.0,98,0.00,,,0.02,Wunderground v.1.15,2013-01-28 12:50:00,
2013-01-28 07:55:00,46.0,45.5,29.97,WNW,291,12.0,14.0,98,0.00,,,0.02,Wunderground v.1.15,2013-01-28 12:55:00,
2013-01-28 08:00:00,46.0,45.5,29.98,West,280,13.0,13.0,98,0.00,,,0.03,Wunderground v.1.15,2013-01-28 13:00:00,
2013-01-28 08:05:00,46.2,45.7,29.97,West,270,14.0,15.0,98,0.12,,,0.04,Wunderground v.1.15,2013-01-28 13:05:00,
2013-01-28 08:15:00,46.1,45.6,29.98,West,262,13.0,18.0,98,0.06,,,0.04,Wunderground v.1.15,2013-01-28 13:15:00,
2013-01-28 08:20:00,46.1,45.6,29.98,West,277,12.0,18.0,98,0.06,,,0.05,Wunderground v.1.15,2013-01-28 13:20:00,
2013-01-28 08:25:00,46.1,45.6,29.98,WNW,284,12.0,18.0,98,0.06,,,0.05,Wunderground v.1.15,2013-01-28 13:25:00,
2013-01-28 08:35:00,46.3,45.8,29.98,NW,311,12.0,18.0,98,0.00,,,0.05,Wunderground v.1.15,2013-01-28 13:35:00,
2013-01-28 08:40:00,46.4,45.9,29.98,NNW,342,13.0,13.0,98,0.00,,,0.06,Wunderground v.1.15,2013-01-28 13:40:00,
2013-01-28 08:45:00,46.4,45.9,29.99,WNW,300,13.0,17.0,98,0.00,,,0.06,Wunderground v.1.15,2013-01-28 13:45:00,
2013-01-28 08:50:00,46.4,45.9,29.98,WNW,295,13.0,13.0,98,0.00,,,0.06,Wunderground v.1.15,2013-01-28 13:50:00,
2013-01-28 08:55:00,46.4,45.9,29.98,WNW,283,13.0,18.0,98,0.00,,,0.06,Wunderground v.1.15,2013-01-28 13:55:00,
2013-01-28 09:05:00,46.6,46.1,29.98,NW,304,14.0,19.0,98,0.00,,,0.06,Wunderground v.1.15,2013-01-28 14:05:00,
2013-01-28 09:15:00,46.6,46.1,29.99,NW,311,13.0,19.0,98,0.00,,,0.06,Wunderground v.1.15,2013-01-28 14:15:00,
2013-01-28 09:25:00,46.5,46.0,29.99,NW,314,13.0,18.0,98,0.00,,,0.06,Wunderground v.1.15,2013-01-28 14:25:00,
2013-01-28 09:30:00,46.5,46.0,29.99,West,276,12.0,18.0,98,0.00,,,0.06,Wunderground v.1.15,2013-01-28 14:30:00,
2013-01-28 09:35:00,46.5,46.0,29.99,West,269,12.0,18.0,98,0.00,,,0.06,Wunderground v.1.15,2013-01-28 14:35:00,
2013-01-28 09:40:00,46.6,46.1,29.99,WNW,293,12.0,18.0,98,0.00,,,0.06,Wunderground v.1.15,2013-01-28 14:40:00,
2013-01-28 09:50:00,46.5,46.0,29.99,NW,305,12.0,12.0,98,0.00,,,0.06,Wunderground v.1.15,2013-01-28 14:50:00,
2013-01-28 09:55:00,46.7,46.2,29.99,WNW,293,12.0,18.0,98,0.00,,,0.06,Wunderground v.1.15,2013-01-28 14:55:00,
2013-01-28 10:00:00,46.7,46.2,29.99,WNW,296,12.0,12.0,98,0.00,,,0.06,Wunderground v.1.15,2013-01-28 15:00:00,
2013-01-28 10:10:00,46.8,46.3,29.99,NW,312,12.0,15.0,98,0.00,,,0.06,Wunderground v.1.15,2013-01-28 15:10:00,
2013-01-28 10:20:00,46.8,46.3,29.99,WSW,252,10.0,10.0,98,0.00,,,0.06,Wunderground v.1.15,2013-01-28 15:20:00,
2013-01-28 10:30:00,47.0,46.5,29.99,WNW,299,10.0,10.0,98,0.00,,,0.06,Wunderground v.1.15,2013-01-28 15:30:00,
2013-01-28 10:35:00,47.3,46.8,29.99,NW,307,11.0,12.0,98,0.00,,,0.07,Wunderground v.1.15,2013-01-28 15:35:00,
2013-01-28 10:40:00,47.3,46.8,29.99,WNW,293,11.0,11.0,98,0.00,,,0.07,Wunderground v.1.15,2013-01-28 15:40:00,
2013-01-28 10:45:00,47.4,46.9,30.00,WNW,300,10.0,11.0,98,0.00,,,0.07,Wunderground v.1.15,2013-01-28 15:45:00,
2013-01-28 10:55:00,47.7,47.2,30.00,NW,317,11.0,12.0,98,0.00,,,0.07,Wunderground v.1.15,2013-01-28 15:55:00,
2013-01-28 11:00:00,47.9,47.4,30.00,NNW,328,12.0,14.0,98,0.00,,,0.07,Wunderground v.1.15,2013-01-28 16:00:00,
2013-01-28 11:05:00,48.0,47.5,30.00,NW,325,14.0,15.0,98,0.00,,,0.07,Wunderground v.1.15,2013-01-28 16:05:00,
2013-01-28 11:10:00,48.1,47.6,30.00,NW,310,14.0,14.0,98,0.00,,,0.07,Wunderground v.1.15,2013-01-28 16:10:00,
2013-01-28 11:20:00,48.1,47.6,30.00,NW,304,12.0,12.0,98,0.00,,,0.07,Wunderground v.1.15,2013-01-28 16:20:00,
2013-01-28 11:30:00,48.5,48.0,30.00,NW,308,11.0,19.0,98,0.00,,,0.07,Wunderground v.1.15,2013-01-28 16:30:00,
2013-01-28 11:35:00,48.5,48.0,30.00,NW,309,13.0,19.0,98,0.00,,,0.07,Wunderground v.1.15,2013-01-28 16:35:00,
2013-01-28 11:40:00,48.5,48.0,30.00,NNW,330,13.0,13.0,98,0.00,,,0.08,Wunderground v.1.15,2013-01-28 16:40:00,
2013-01-28 11:45:00,48.6,48.1,30.00,NW,310,12.0,19.0,98,0.00,,,0.08,Wunderground v.1.15,2013-01-28 16:45:00,
2013-01-28 11:50:00,48.5,48.0,30.00,WNW,301,12.0,19.0,98,0.00,,,0.08,Wunderground v.1.15,2013-01-28 16:50:00,
2013-01-28 11:55:00,48.6,48.1,30.00,WNW,297,12.0,19.0,98,0.00,,,0.08,Wunderground v.1.15,2013-01-28 16:55:00,
2013-01-28 12:01:00,48.7,48.2,30.00,WNW,296,13.0,14.0,98,0.00,,,0.08,Wunderground v.1.15,2013-01-28 17:01:00,
2013-01-28 12:10:00,48.7,48.2,30.00,NW,312,13.0,14.0,98,0.00,,,0.08,Wunderground v.1.15,2013-01-28 17:10:00,
2013-01-28 12:15:00,48.7,48.2,30.00,WNW,298,13.0,14.0,98,0.00,,,0.08,Wunderground v.1.15,2013-01-28 17:15:00,
2013-01-28 12:20:00,48.7,48.2,30.00,NNE,31,13.0,13.0,98,0.00,,,0.08,Wunderground v.1.15,2013-01-28 17:20:00,
2013-01-28 12:25:00,48.7,48.2,30.00,SE,131,13.0,13.0,98,0.00,,,0.08,Wunderground v.1.15,2013-01-28 17:25:00,
2013-01-28 12:30:00,48.8,48.3,30.00,NW,306,12.0,14.0,98,0.00,,,0.08,Wunderground v.1.15,2013-01-28 17:30:00,
2013-01-28 12:35:00,48.7,48.2,30.00,NW,304,13.0,17.0,98,0.00,,,0.08,Wunderground v.1.15,2013-01-28 17:35:00,
2013-01-28 12:40:00,48.8,48.3,29.99,NW,306,13.0,13.0,98,0.00,,,0.08,Wunderground v.1.15,2013-01-28 17:40:00,
2013-01-28 12:45:00,48.7,48.2,30.00,ENE,68,13.0,13.0,98,0.00,,,0.08,Wunderground v.1.15,2013-01-28 17:45:00,
2013-01-28 12:55:00,48.7,48.2,29.99,NW,316,13.0,13.0,98,0.00,,,0.08,Wunderground v.1.15,2013-01-28 17:55:00,
2013-01-28 13:00:00,48.7,48.2,29.99,NW,308,13.0,13.0,98,0.00,,,0.08,Wunderground v.1.15,2013-01-28 18:00:00,
2013-01-28 13:05:00,48.7,48.4,29.99,NW,311,12.0,22.0,99,0.00,,,0.08,Wunderground v.1.15,2013-01-28 18:05:00,
2013-01-28 13:15:00,48.6,48.1,29.99,West,278,12.0,22.0,98,0.00,,,0.08,Wunderground v.1.15,2013-01-28 18:15:00,
2013-01-28 13:20:00,48.7,48.4,29.99,NW,307,13.0,22.0,99,0.00,,,0.08,Wunderground v.1.15,2013-01-28 18:20:00,
2013-01-28 13:25:00,48.7,48.4,29.99,North,350,13.0,22.0,99,0.00,,,0.08,Wunderground v.1.15,2013-01-28 18:25:00,
2013-01-28 13:35:00,48.6,48.3,29.99,NW,316,12.0,17.0,99,0.00,,,0.08,Wunderground v.1.15,2013-01-28 18:35:00,
2013-01-28 13:40:00,48.7,48.4,29.99,NW,319,12.0,22.0,99,0.00,,,0.08,Wunderground v.1.15,2013-01-28 18:40:00,
2013-01-28 13:45:00,48.6,48.3,29.98,NW,326,13.0,22.0,99,0.00,,,0.08,Wunderground v.1.15,2013-01-28 18:45:00,
2013-01-28 13:50:00,48.7,48.4,29.99,NW,307,12.0,22.0,99,0.00,,,0.08,Wunderground v.1.15,2013-01-28 18:50:00,
2013-01-28 13:55:00,48.7,48.4,29.98,NNW,332,13.0,22.0,99,0.00,,,0.08,Wunderground v.1.15,2013-01-28 18:55:00,
2013-01-28 14:00:00,48.7,48.4,29.98,WNW,291,13.0,13.0,99,0.00,,,0.08,Wunderground v.1.15,2013-01-28 19:00:00,
2013-01-28 14:10:00,48.8,48.5,29.98,NW,313,13.0,13.0,99,0.00,,,0.08,Wunderground v.1.15,2013-01-28 19:10:00,
2013-01-28 14:15:00,48.8,48.5,29.98,NNE,13,13.0,13.0,99,0.00,,,0.08,Wunderground v.1.15,2013-01-28 19:15:00,
2013-01-28 14:25:00,48.8,48.5,29.98,NW,311,12.0,14.0,99,0.00,,,0.08,Wunderground v.1.15,2013-01-28 19:25:00,
2013-01-28 14:35:00,48.8,48.5,29.98,NW,326,11.0,12.0,99,0.00,,,0.08,Wunderground v.1.15,2013-01-28 19:35:00,
2013-01-28 14:40:00,48.8,48.5,29.98,East,83,11.0,11.0,99,0.00,,,0.08,Wunderground v.1.15,2013-01-28 19:40:00,
2013-01-28 14:45:00,48.8,48.5,29.98,NW,316,11.0,12.0,99,0.00,,,0.08,Wunderground v.1.15,2013-01-28 19:45:00,
2013-01-28 14:50:00,48.7,48.4,29.98,NNW,340,11.0,11.0,99,0.00,,,0.08,Wunderground v.1.15,2013-01-28 19:50:00,
2013-01-28 15:00:00,48.7,48.4,29.98,NW,326,10.0,10.0,99,0.00,,,0.08,Wunderground v.1.15,2013-01-28 20:00:00,
2013-01-28 15:05:00,48.6,48.3,29.98,NW,308,10.0,20.0,99,0.00,,,0.08,Wunderground v.1.15,2013-01-28 20:05:00,
2013-01-28 15:10:00,48.7,48.4,29.98,WNW,301,10.0,10.0,99,0.00,,,0.08,Wunderground v.1.15,2013-01-28 20:10:00,
2013-01-28 15:15:00,48.7,48.4,29.99,WNW,293,10.0,20.0,99,0.00,,,0.08,Wunderground v.1.15,2013-01-28 20:15:00,
2013-01-28 15:20:00,48.7,48.4,29.99,NW,326,9.0,20.0,99,0.00,,,0.08,Wunderground v.1.15,2013-01-28 20:20:00,
2013-01-28 15:30:00,48.6,48.3,29.99,NNW,333,8.0,8.0,99,0.00,,,0.09,Wunderground v.1.15,2013-01-28 20:30:00,
2013-01-28 15:40:00,48.5,48.2,29.99,NW,323,8.0,8.0,99,0.00,,,0.09,Wunderground v.1.15,2013-01-28 20:40:00,
2013-01-28 15:45:00,48.4,48.1,29.99,NW,325,8.0,10.0,99,0.00,,,0.09,Wunderground v.1.15,2013-01-28 20:45:00,
2013-01-28 15:50:00,48.5,48.2,30.00,NW,321,8.0,8.0,99,0.00,,,0.09,Wunderground v.1.15,2013-01-28 20:50:00,
2013-01-28 15:55:00,48.4,48.1,30.00,NNW,339,7.0,9.0,99,0.00,,,0.09,Wunderground v.1.15,2013-01-28 20:55:00,
2013-01-28 16:00:00,48.4,48.1,30.00,NW,310,7.0,9.0,99,0.00,,,0.09,Wunderground v.1.15,2013-01-28 21:00:00,
2013-01-28 16:10:00,48.3,48.0,30.00,NNE,20,7.0,8.0,99,0.00,,,0.09,Wunderground v.1.15,2013-01-28 21:10:00,
2013-01-28 16:15:00,48.3,48.0,30.01,NW,307,7.0,8.0,99,0.00,,,0.09,Wunderground v.1.15,2013-01-28 21:15:00,
2013-01-28 16:25:00,48.3,48.0,30.01,NE,34,7.0,7.0,99,0.00,,,0.09,Wunderground v.1.15,2013-01-28 21:25:00,
2013-01-28 16:30:00,48.3,48.0,30.01,NW,323,7.0,7.0,99,0.00,,,0.09,Wunderground v.1.15,2013-01-28 21:30:00,
2013-01-28 16:40:00,48.3,48.0,30.01,NW,325,7.0,7.0,99,0.00,,,0.09,Wunderground v.1.15,2013-01-28 21:40:00,
2013-01-28 16:45:00,48.3,48.0,30.01,NW,321,7.0,7.0,99,0.00,,,0.09,Wunderground v.1.15,2013-01-28 21:45:00,
2013-01-28 16:50:00,48.2,47.9,30.02,NW,313,6.0,7.0,99,0.00,,,0.09,Wunderground v.1.15,2013-01-28 21:50:00,
2013-01-28 16:55:00,48.3,48.0,30.01,NNW,330,7.0,7.0,99,0.00,,,0.09,Wunderground v.1.15,2013-01-28 21:55:00,
2013-01-28 17:00:00,48.2,47.9,30.01,NNW,328,6.0,6.0,99,0.00,,,0.09,Wunderground v.1.15,2013-01-28 22:00:00,
2013-01-28 17:05:00,48.1,47.8,30.02,NW,322,6.0,12.0,99,0.00,,,0.09,Wunderground v.1.15,2013-01-28 22:05:00,
2013-01-28 17:15:00,48.0,47.7,30.01,NW,316,5.0,12.0,99,0.00,,,0.09,Wunderground v.1.15,2013-01-28 22:15:00,
2013-01-28 17:20:00,48.0,47.7,30.01,NW,321,5.0,12.0,99,0.00,,,0.09,Wunderground v.1.15,2013-01-28 22:20:00,
2013-01-28 17:30:00,48.0,47.7,30.01,NW,312,5.0,5.0,99,0.00,,,0.09,Wunderground v.1.15,2013-01-28 22:30:00,
2013-01-28 17:35:00,47.9,47.6,30.01,WNW,299,4.0,12.0,99,0.00,,,0.09,Wunderground v.1.15,2013-01-28 22:35:00,
2013-01-28 17:40:00,47.8,47.5,30.02,NNW,329,3.0,12.0,99,0.00,,,0.09,Wunderground v.1.15,2013-01-28 22:40:00,
2013-01-28 17:45:00,47.8,47.5,30.02,NW,321,3.0,12.0,99,0.00,,,0.09,Wunderground v.1.15,2013-01-28 22:45:00,
2013-01-28 17:50:00,47.7,47.4,30.02,NW,314,3.0,12.0,99,0.00,,,0.09,Wunderground v.1.15,2013-01-28 22:50:00,
2013-01-28 18:01:00,47.5,47.2,30.02,NW,304,2.0,2.0,99,0.00,,,0.09,Wunderground v.1.15,2013-01-28 23:01:00,
2013-01-28 18:10:00,47.5,47.2,30.03,NW,316,3.0,3.0,99,0.00,,,0.09,Wunderground v.1.15,2013-01-28 23:10:00,
2013-01-28 18:15:00,47.5,47.2,30.03,WNW,288,3.0,3.0,99,0.00,,,0.09,Wunderground v.1.15,2013-01-28 23:15:00,
2013-01-28 18:20:00,47.4,47.1,30.03,WNW,290,2.0,2.0,99,0.00,,,0.09,Wunderground v.1.15,2013-01-28 23:20:00,
2013-01-28 18:25:00,47.3,47.0,30.03,WNW,291,2.0,2.0,99,0.00,,,0.09,Wunderground v.1.15,2013-01-28 23:25:00,
2013-01-28 18:35:00,47.2,46.9,30.03,West,279,2.0,2.0,99,0.00,,,0.09,Wunderground v.1.15,2013-01-28 23:35:00,
2013-01-28 18:40:00,47.0,46.7,30.03,West,277,2.0,2.0,99,0.00,,,0.09,Wunderground v.1.15,2013-01-28 23:40:00,
2013-01-28 18:50:00,47.0,46.7,30.04,West,280,3.0,3.0,99,0.00,,,0.09,Wunderground v.1.15,2013-01-28 23:50:00,
2013-01-28 18:55:00,46.8,46.5,30.03,East,96,2.0,3.0,99,0.00,,,0.09,Wunderground v.1.15,2013-01-28 23:55:00,
2013-01-28 19:00:00,45.7,45.2,30.04,ESE,104,2.0,3.0,98,0.00,,,0.09,Wunderground v.1.15,2013-01-29 00:00:00,
2013-01-28 19:05:00,44.4,43.6,30.04,ESE,103,2.0,5.0,97,0.00,,,0.09,Wunderground v.1.15,2013-01-29 00:05:00,
2013-01-28 19:15:00,43.3,42.8,30.04,ESE,103,2.0,5.0,98,0.00,,,0.09,Wunderground v.1.15,2013-01-29 00:15:00,
2013-01-28 19:20:00,43.2,42.9,30.04,ESE,103,3.0,3.0,99,0.00,,,0.09,Wunderground v.1.15,2013-01-29 00:20:00,
2013-01-28 19:30:00,43.1,42.8,30.04,ESE,104,3.0,5.0,99,0.00,,,0.09,Wunderground v.1.15,2013-01-29 00:30:00,
2013-01-28 19:35:00,43.1,42.8,30.04,ESE,105,3.0,5.0,99,0.00,,,0.09,Wunderground v.1.15,2013-01-29 00:35:00,
2013-01-28 19:40:00,43.0,42.7,30.04,ESE,105,2.0,2.0,99,0.00,,,0.09,Wunderground v.1.15,2013-01-29 00:40:00,
2013-01-28 19:50:00,42.9,42.6,30.04,ESE,106,2.0,2.0,99,0.00,,,0.10,Wunderground v.1.15,2013-01-29 00:50:00,
2013-01-28 19:55:00,42.7,42.4,30.04,ESE,105,2.0,5.0,99,0.00,,,0.10,Wunderground v.1.15,2013-01-29 00:55:00,
2013-01-28 20:01:00,42.6,42.3,30.05,ESE,105,2.0,2.0,99,0.00,,,0.10,Wunderground v.1.15,2013-01-29 01:01:00,
2013-01-28 20:10:00,42.4,42.1,30.04,ESE,106,2.0,2.0,99,0.00,,,0.10,Wunderground v.1.15,2013-01-29 01:10:00,
2013-01-28 20:15:00,42.4,42.1,30.04,ESE,108,3.0,3.0,99,0.00,,,0.10,Wunderground v.1.15,2013-01-29 01:15:00,
2013-01-28 20:20:00,42.3,42.0,30.04,ESE,108,2.0,2.0,99,0.00,,,0.10,Wunderground v.1.15,2013-01-29 01:20:00,
2013-01-28 20:30:00,42.2,41.9,30.04,SE,124,3.0,4.0,99,0.00,,,0.10,Wunderground v.1.15,2013-01-29 01:30:00,
2013-01-28 20:35:00,42.1,41.8,30.05,SE,127,3.0,4.0,99,0.00,,,0.10,Wunderground v.1.15,2013-01-29 01:35:00,
2013-01-28 20:45:00,41.7,41.4,30.04,SE,127,2.0,3.0,99,0.00,,,0.10,Wunderground v.1.15,2013-01-29 01:45:00,
2013-01-28 20:50:00,41.7,41.4,30.04,SE,127,3.0,3.0,99,0.00,,,0.10,Wunderground v.1.15,2013-01-29 01:50:00,
2013-01-28 20:55:00,41.7,41.4,30.04,SE,127,2.0,3.0,99,0.00,,,0.10,Wunderground v.1.15,2013-01-29 01:55:00,
2013-01-28 21:00:00,41.9,41.6,30.04,SE,131,2.0,2.0,99,0.00,,,0.10,Wunderground v.1.15,2013-01-29 02:00:00,
2013-01-28 21:10:00,41.8,41.5,30.04,SSE,147,2.0,4.0,99,0.00,,,0.10,Wunderground v.1.15,2013-01-29 02:10:00,
2013-01-28 21:15:00,41.9,41.6,30.04,SE,134,1.0,4.0,99,0.00,,,0.10,Wunderground v.1.15,2013-01-29 02:15:00,
2013-01-28 21:25:00,41.9,41.6,30.03,SE,139,3.0,4.0,99,0.00,,,0.10,Wunderground v.1.15,2013-01-29 02:25:00,
2013-01-28 21:30:00,42.0,41.7,30.03,SE,134,3.0,4.0,99,0.00,,,0.10,Wunderground v.1.15,2013-01-29 02:30:00,
2013-01-28 21:35:00,42.0,41.7,30.04,SE,131,3.0,4.0,99,0.00,,,0.10,Wunderground v.1.15,2013-01-29 02:35:00,
2013-01-28 21:45:00,42.2,41.9,30.03,SE,131,2.0,4.0,99,0.00,,,0.10,Wunderground v.1.15,2013-01-29 02:45:00,
2013-01-28 21:50:00,42.3,42.0,30.03,SE,131,2.0,4.0,99,0.00,,,0.10,Wunderground v.1.15,2013-01-29 02:50:00,
2013-01-28 22:01:00,42.5,42.2,30.03,SE,146,2.0,2.0,99,0.00,,,0.10,Wunderground v.1.15,2013-01-29 03:01:00,
2013-01-28 22:10:00,43.0,42.7,30.03,SE,146,1.0,2.0,99,0.00,,,0.10,Wunderground v.1.15,2013-01-29 03:10:00,
2013-01-28 22:15:00,43.2,42.9,30.03,SE,139,1.0,2.0,99,0.00,,,0.10,Wunderground v.1.15,2013-01-29 03:15:00,
2013-01-28 22:20:00,42.7,42.4,30.03,SE,131,2.0,2.0,99,0.00,,,0.10,Wunderground v.1.15,2013-01-29 03:20:00,
2013-01-28 22:25:00,42.1,41.8,30.03,SE,131,2.0,4.0,99,0.00,,,0.10,Wunderground v.1.15,2013-01-29 03:25:00,
2013-01-28 22:35:00,42.7,42.4,30.03,SE,144,3.0,3.0,99,0.00,,,0.10,Wunderground v.1.15,2013-01-29 03:35:00,
2013-01-28 22:40:00,43.2,42.9,30.03,SSE,155,1.0,1.0,99,0.00,,,0.10,Wunderground v.1.15,2013-01-29 03:40:00,
2013-01-28 22:45:00,43.7,43.7,30.03,SSE,155,1.0,1.0,100,0.00,,,0.10,Wunderground v.1.15,2013-01-29 03:45:00,
2013-01-28 22:55:00,44.3,44.3,30.03,SSE,155,0.0,1.0,100,0.00,,,0.10,Wunderground v.1.15,2013-01-29 03:55:00,
2013-01-28 23:00:00,44.6,44.6,30.02,SSE,155,1.0,1.0,100,0.00,,,0.10,Wunderground v.1.15,2013-01-29 04:00:00,
2013-01-28 23:05:00,44.9,44.9,30.02,South,176,1.0,2.0,100,0.00,,,0.10,Wunderground v.1.15,2013-01-29 04:05:00,
2013-01-28 23:15:00,44.8,44.8,30.02,SSE,149,1.0,3.0,100,0.00,,,0.10,Wunderground v.1.15,2013-01-29 04:15:00,
2013-01-28 23:20:00,45.1,45.1,30.02,SSE,158,2.0,2.0,100,0.00,,,0.10,Wunderground v.1.15,2013-01-29 04:20:00,
2013-01-28 23:25:00,45.0,45.0,30.02,South,175,2.0,3.0,100,0.00,,,0.10,Wunderground v.1.15,2013-01-29 04:25:00,
2013-01-28 23:35:00,45.4,45.4,30.01,SE,142,2.0,3.0,100,0.00,,,0.10,Wunderground v.1.15,2013-01-29 04:35:00,
2013-01-28 23:40:00,45.7,45.7,30.01,South,175,2.0,2.0,100,0.00,,,0.10,Wunderground v.1.15,2013-01-29 04:40:00,
2013-01-28 23:50:00,45.7,45.7,30.01,SW,231,2.0,4.0,100,0.00,,,0.10,Wunderground v.1.15,2013-01-29 04:50:00,
2013-01-28 23:55:00,46.0,46.0,30.00,SW,220,3.0,5.0,100,0.00,,,0.10,Wunderground v.1.15,2013-01-29 04:55:00,